FDX3810 KEWR-KOAK

Flight info

Callsign FDX3810
Flight time 5h 12m
Altitude 30000
Route KEWR/04L EWR5 COATE Q436 RAAKK Q438 RUBYY DCT DABJU DCT KG78K DCT KP78I DCT KP78G DCT KP75C DCT KD72Y DCT KD69W DCT KD63S DCT BONGO DCT KU60Q DCT DRRSI DCT DTA DCT TATOO DCT RPARK OAKES3 KOAK/FFIST I30
Aircraft B77L/H-SDE2E3FGHIJ5LORVWXY/LB1D1

Departure

Time 2026-04-26 16:19
Airport Newark Liberty International Airport (KEWR)

Arrival

Time 2026-04-26 21:31
Airport San Francisco Bay Oakland International Airport (KOAK)
Time Latitude Longitude Altitude Speed Heading
2026-04-26 15:03 40.67750 -74.18533 20 ft 0 kts 205°
2026-04-26 15:58 40.67754 -74.18530 20 ft 2 kts 206°
2026-04-26 15:58 40.67766 -74.18523 20 ft 2 kts 205°
2026-04-26 15:59 40.67780 -74.18514 20 ft 2 kts 205°
2026-04-26 15:59 40.67791 -74.18507 20 ft 0 kts 205°
2026-04-26 15:59 40.67802 -74.18503 20 ft 1 kts 163°
2026-04-26 15:59 40.67812 -74.18511 20 ft 0 kts 116°
2026-04-26 16:00 40.67814 -74.18518 20 ft 0 kts 116°
2026-04-26 16:13 40.67806 -74.18495 20 ft 6 kts 116°
2026-04-26 16:13 40.67784 -74.18436 20 ft 7 kts 115°
2026-04-26 16:13 40.67768 -74.18368 20 ft 7 kts 109°
2026-04-26 16:14 40.67746 -74.18298 20 ft 8 kts 115°
2026-04-26 16:14 40.67717 -74.18228 20 ft 8 kts 118°
2026-04-26 16:14 40.67638 -74.18098 20 ft 9 kts 131°
2026-04-26 16:15 40.67618 -74.18067 20 ft 0 kts 131°
2026-04-26 16:16 40.67612 -74.18059 20 ft 3 kts 131°
2026-04-26 16:16 40.67584 -74.18014 20 ft 9 kts 127°
2026-04-26 16:17 40.67556 -74.17941 20 ft 5 kts 71°
2026-04-26 16:17 40.67593 -74.17911 20 ft 6 kts 24°
2026-04-26 16:17 40.67639 -74.17883 20 ft 7 kts 27°
2026-04-26 16:17 40.67687 -74.17850 20 ft 8 kts 27°
2026-04-26 16:18 40.67739 -74.17816 20 ft 8 kts 26°
2026-04-26 16:18 40.67858 -74.17743 20 ft 47 kts 25°
2026-04-26 16:19 40.69447 -74.16728 139 ft 191 kts 28°
2026-04-26 16:19 40.70640 -74.15863 1101 ft 199 kts 37°
2026-04-26 16:19 40.72549 -74.13609 3008 ft 200 kts 42°
2026-04-26 16:20 40.73608 -74.12322 3672 ft 215 kts 42°
2026-04-26 16:20 40.76070 -74.09629 4994 ft 246 kts 25°
2026-04-26 16:20 40.77754 -74.09165 5845 ft 254 kts 359°
2026-04-26 16:21 40.79446 -74.09772 6678 ft 264 kts 333°
2026-04-26 16:21 40.80783 -74.11456 7613 ft 272 kts 304°
2026-04-26 16:21 40.81400 -74.13832 8446 ft 282 kts 284°
2026-04-26 16:21 40.81691 -74.16355 9266 ft 285 kts 281°
2026-04-26 16:22 40.81951 -74.18959 10078 ft 288 kts 282°
2026-04-26 16:22 40.82214 -74.21606 10818 ft 294 kts 281°
2026-04-26 16:22 40.82481 -74.24289 11611 ft 299 kts 282°
2026-04-26 16:22 40.82802 -74.26971 12517 ft 297 kts 290°
2026-04-26 16:23 40.83690 -74.29336 13349 ft 294 kts 311°
2026-04-26 16:23 40.85075 -74.31323 14301 ft 295 kts 317°
2026-04-26 16:23 40.86493 -74.33217 15426 ft 294 kts 317°
2026-04-26 16:23 40.87856 -74.35030 16474 ft 295 kts 317°
2026-04-26 16:24 40.89250 -74.36884 17484 ft 296 kts 317°
2026-04-26 16:24 40.90691 -74.38804 18454 ft 300 kts 316°
2026-04-26 16:24 40.92140 -74.40735 19436 ft 302 kts 316°
2026-04-26 16:24 40.93623 -74.42712 20380 ft 305 kts 316°
2026-04-26 16:25 40.95122 -74.44712 21217 ft 311 kts 316°
2026-04-26 16:25 40.96663 -74.46769 21754 ft 326 kts 316°
2026-04-26 16:25 40.98295 -74.48946 22236 ft 342 kts 316°
2026-04-26 16:25 41.00003 -74.51231 22757 ft 357 kts 316°
2026-04-26 16:26 41.01761 -74.53582 23237 ft 372 kts 316°
2026-04-26 16:26 41.03630 -74.56086 23682 ft 388 kts 316°
2026-04-26 16:26 41.05564 -74.58679 24062 ft 404 kts 316°
2026-04-26 16:26 41.07538 -74.61328 24651 ft 415 kts 316°
2026-04-26 16:27 41.09578 -74.64071 25495 ft 420 kts 316°
2026-04-26 16:27 41.11608 -74.66803 26383 ft 423 kts 315°
2026-04-26 16:27 41.13531 -74.69684 27267 ft 428 kts 308°
2026-04-26 16:27 41.15174 -74.73048 28075 ft 435 kts 302°
2026-04-26 16:28 41.16704 -74.76543 28850 ft 442 kts 301°
2026-04-26 16:28 41.18224 -74.80041 29675 ft 446 kts 301°
2026-04-26 16:28 41.19774 -74.83611 30119 ft 447 kts 301°
2026-04-26 16:28 41.21331 -74.87201 30154 ft 444 kts 301°
2026-04-26 16:29 41.24367 -74.94208 30149 ft 442 kts 301°
2026-04-26 16:29 41.27442 -75.01318 30147 ft 442 kts 301°
2026-04-26 16:30 41.30504 -75.08413 30141 ft 442 kts 302°
2026-04-26 16:30 41.33550 -75.15485 30139 ft 441 kts 302°
2026-04-26 16:31 41.36602 -75.22588 30141 ft 444 kts 302°
2026-04-26 16:31 41.39642 -75.29681 30140 ft 442 kts 302°
2026-04-26 16:32 41.42187 -75.35630 30136 ft 444 kts 302°
2026-04-26 16:32 41.45718 -75.43903 30138 ft 442 kts 302°
2026-04-26 16:33 41.48401 -75.51140 30140 ft 444 kts 295°
2026-04-26 16:33 41.50621 -75.58827 30147 ft 446 kts 294°
2026-04-26 16:34 41.52816 -75.66479 30147 ft 447 kts 294°
2026-04-26 16:34 41.55042 -75.74259 30152 ft 447 kts 294°
2026-04-26 16:35 41.57246 -75.81985 30151 ft 448 kts 294°
2026-04-26 16:35 41.59468 -75.89796 30149 ft 447 kts 294°
2026-04-26 16:36 41.61678 -75.97593 30143 ft 449 kts 294°
2026-04-26 16:36 41.63852 -76.05286 30142 ft 449 kts 294°
2026-04-26 16:37 41.66045 -76.13068 30140 ft 448 kts 294°
2026-04-26 16:37 41.68233 -76.20858 30136 ft 450 kts 294°
2026-04-26 16:38 41.70421 -76.28668 30140 ft 449 kts 294°
2026-04-26 16:38 41.72596 -76.36459 30145 ft 449 kts 294°
2026-04-26 16:39 41.74780 -76.44305 30150 ft 451 kts 294°
2026-04-26 16:39 41.76955 -76.52145 30150 ft 448 kts 294°
2026-04-26 16:40 41.79104 -76.59909 30152 ft 450 kts 294°
2026-04-26 16:40 41.81274 -76.67773 30161 ft 449 kts 293°
2026-04-26 16:41 41.83434 -76.75624 30158 ft 450 kts 293°
2026-04-26 16:41 41.85589 -76.83479 30162 ft 450 kts 293°
2026-04-26 16:42 41.87739 -76.91345 30165 ft 452 kts 293°
2026-04-26 16:42 41.89883 -76.99231 30170 ft 450 kts 293°
2026-04-26 16:43 41.92030 -77.07159 30162 ft 453 kts 292°
2026-04-26 16:43 41.94170 -77.15092 30164 ft 452 kts 293°
2026-04-26 16:44 41.96305 -77.23031 30156 ft 451 kts 293°
2026-04-26 16:44 41.98426 -77.30940 30154 ft 452 kts 292°
2026-04-26 16:45 42.00543 -77.38864 30152 ft 450 kts 293°
2026-04-26 16:45 42.02678 -77.46767 30150 ft 452 kts 293°
2026-04-26 16:46 42.04837 -77.54688 30150 ft 452 kts 293°
2026-04-26 16:46 42.06991 -77.62623 30145 ft 452 kts 293°
2026-04-26 16:47 42.09134 -77.70546 30143 ft 454 kts 292°
2026-04-26 16:47 42.11294 -77.78561 30157 ft 455 kts 292°
2026-04-26 16:48 42.13428 -77.86507 30164 ft 454 kts 292°
2026-04-26 16:48 42.15576 -77.94531 30165 ft 452 kts 292°
2026-04-26 16:49 42.17697 -78.02477 30165 ft 453 kts 292°
2026-04-26 16:49 42.19827 -78.10489 30158 ft 453 kts 292°
2026-04-26 16:50 42.21940 -78.18459 30155 ft 454 kts 292°
2026-04-26 16:50 42.24071 -78.26522 30156 ft 456 kts 292°
2026-04-26 16:51 42.26114 -78.34597 30153 ft 456 kts 291°
2026-04-26 16:51 42.28129 -78.42750 30151 ft 456 kts 291°
2026-04-26 16:52 42.29796 -78.49502 30151 ft 458 kts 291°
2026-04-26 16:52 42.32131 -78.58989 30144 ft 457 kts 291°
2026-04-26 16:53 42.34132 -78.67139 30141 ft 458 kts 291°
2026-04-26 16:53 42.36129 -78.75303 30140 ft 459 kts 291°
2026-04-26 16:54 42.38121 -78.83470 30148 ft 458 kts 291°
2026-04-26 16:54 42.40098 -78.91605 30147 ft 460 kts 291°
2026-04-26 16:55 42.42111 -78.99806 30148 ft 459 kts 291°
2026-04-26 16:55 42.44117 -79.07990 30150 ft 460 kts 291°
2026-04-26 16:56 42.47125 -79.20328 30169 ft 459 kts 291°
2026-04-26 16:57 42.49107 -79.28495 30170 ft 460 kts 291°
2026-04-26 16:57 42.52096 -79.40861 30168 ft 460 kts 290°
2026-04-26 16:58 42.53699 -79.47527 30166 ft 460 kts 291°
2026-04-26 16:59 42.56990 -79.61266 30164 ft 459 kts 290°
2026-04-26 17:00 42.60833 -79.77741 30167 ft 461 kts 285°
2026-04-26 17:00 42.61716 -79.90801 30171 ft 464 kts 276°
2026-04-26 17:01 42.62099 -79.99548 30161 ft 465 kts 276°
2026-04-26 17:01 42.62475 -80.08258 30168 ft 465 kts 276°
2026-04-26 17:02 42.62848 -80.17032 30165 ft 464 kts 276°
2026-04-26 17:02 42.63210 -80.25704 30167 ft 465 kts 276°
2026-04-26 17:03 42.63567 -80.34415 30168 ft 462 kts 276°
2026-04-26 17:03 42.63919 -80.43130 30167 ft 464 kts 276°
2026-04-26 17:04 42.64261 -80.51821 30171 ft 463 kts 276°
2026-04-26 17:04 42.64568 -80.60558 30168 ft 463 kts 276°
2026-04-26 17:05 42.64864 -80.69257 30172 ft 464 kts 275°
2026-04-26 17:05 42.65155 -80.77962 30175 ft 462 kts 275°
2026-04-26 17:06 42.65441 -80.86687 30174 ft 464 kts 275°
2026-04-26 17:06 42.65717 -80.95326 30176 ft 462 kts 275°
2026-04-26 17:07 42.65989 -81.04026 30177 ft 461 kts 275°
2026-04-26 17:07 42.66254 -81.12704 30177 ft 462 kts 275°
2026-04-26 17:08 42.66513 -81.21430 30176 ft 461 kts 275°
2026-04-26 17:08 42.67037 -81.30024 30180 ft 461 kts 281°
2026-04-26 17:09 42.67875 -81.37205 30176 ft 459 kts 281°
2026-04-26 17:09 42.69040 -81.47211 30177 ft 458 kts 281°
2026-04-26 17:10 42.70018 -81.55708 30179 ft 458 kts 281°
2026-04-26 17:10 42.70992 -81.64251 30180 ft 460 kts 281°
2026-04-26 17:11 42.71944 -81.72659 30185 ft 459 kts 280°
2026-04-26 17:11 42.72889 -81.81067 30183 ft 460 kts 280°
2026-04-26 17:12 42.74299 -81.93728 30186 ft 459 kts 280°
2026-04-26 17:13 42.75694 -82.06384 30191 ft 459 kts 280°
2026-04-26 17:14 42.77056 -82.18877 30191 ft 457 kts 280°
2026-04-26 17:14 42.78409 -82.31408 30195 ft 457 kts 280°
2026-04-26 17:15 42.79743 -82.43904 30199 ft 457 kts 280°
2026-04-26 17:16 42.80636 -82.52337 30195 ft 457 kts 279°
2026-04-26 17:16 42.81620 -82.60618 30193 ft 458 kts 282°
2026-04-26 17:17 42.82775 -82.68906 30193 ft 455 kts 282°
2026-04-26 17:17 42.83923 -82.77258 30184 ft 455 kts 281°
2026-04-26 17:18 42.85072 -82.85715 30176 ft 455 kts 281°
2026-04-26 17:18 42.86207 -82.94153 30177 ft 455 kts 281°
2026-04-26 17:19 42.87842 -83.06417 30166 ft 455 kts 281°
2026-04-26 17:19 42.88917 -83.14542 30174 ft 455 kts 281°
2026-04-26 17:20 42.89845 -83.21603 30159 ft 455 kts 281°
2026-04-26 17:20 42.91132 -83.31496 30164 ft 455 kts 280°
2026-04-26 17:21 42.91899 -83.40072 30170 ft 456 kts 278°
2026-04-26 17:21 42.92632 -83.48647 30181 ft 457 kts 278°
2026-04-26 17:22 42.93372 -83.57234 30171 ft 457 kts 278°
2026-04-26 17:22 42.94113 -83.65836 30169 ft 457 kts 277°
2026-04-26 17:23 42.94848 -83.74393 30178 ft 458 kts 277°
2026-04-26 17:23 42.95578 -83.82965 30174 ft 457 kts 277°
2026-04-26 17:24 42.96305 -83.91560 30179 ft 457 kts 278°
2026-04-26 17:24 42.97030 -84.00196 30175 ft 459 kts 278°
2026-04-26 17:25 42.97752 -84.08883 30175 ft 459 kts 278°
2026-04-26 17:25 42.98461 -84.17496 30176 ft 460 kts 278°
2026-04-26 17:26 42.99168 -84.26152 30172 ft 458 kts 277°
2026-04-26 17:26 42.99865 -84.34780 30164 ft 459 kts 277°
2026-04-26 17:27 43.00556 -84.43405 30161 ft 457 kts 277°
2026-04-26 17:27 43.01237 -84.51990 30157 ft 457 kts 277°
2026-04-26 17:28 43.01877 -84.60091 30153 ft 458 kts 278°
2026-04-26 17:28 43.02858 -84.68720 30161 ft 459 kts 279°
2026-04-26 17:29 43.03692 -84.75872 30159 ft 459 kts 279°
2026-04-26 17:29 43.04839 -84.85898 30158 ft 457 kts 279°
2026-04-26 17:30 43.05804 -84.94459 30154 ft 457 kts 279°
2026-04-26 17:30 43.06760 -85.03016 30155 ft 457 kts 279°
2026-04-26 17:31 43.07701 -85.11520 30155 ft 456 kts 279°
2026-04-26 17:31 43.08640 -85.20069 30150 ft 455 kts 279°
2026-04-26 17:32 43.09575 -85.28648 30149 ft 455 kts 279°
2026-04-26 17:32 43.10487 -85.37083 30153 ft 455 kts 279°
2026-04-26 17:33 43.11405 -85.45629 30151 ft 455 kts 279°
2026-04-26 17:34 43.12769 -85.58446 30149 ft 455 kts 279°
2026-04-26 17:34 43.13666 -85.66955 30152 ft 455 kts 278°
2026-04-26 17:35 43.14558 -85.75485 30157 ft 453 kts 278°
2026-04-26 17:35 43.15445 -85.84023 30161 ft 453 kts 278°
2026-04-26 17:36 43.16323 -85.92535 30146 ft 454 kts 278°
2026-04-26 17:36 43.17198 -86.01084 30155 ft 455 kts 278°
2026-04-26 17:37 43.18070 -86.09663 30152 ft 452 kts 278°
2026-04-26 17:37 43.18928 -86.18184 30149 ft 453 kts 278°
2026-04-26 17:38 43.19680 -86.31021 30152 ft 453 kts 269°
2026-04-26 17:38 43.19372 -86.39664 30146 ft 453 kts 268°
2026-04-26 17:39 43.19048 -86.48234 30148 ft 454 kts 268°
2026-04-26 17:39 43.18715 -86.56827 30139 ft 452 kts 268°
2026-04-26 17:40 43.18430 -86.64015 30143 ft 453 kts 268°
2026-04-26 17:40 43.18025 -86.74017 30143 ft 454 kts 268°
2026-04-26 17:41 43.17670 -86.82592 30142 ft 453 kts 267°
2026-04-26 17:41 43.17308 -86.91200 30140 ft 454 kts 268°
2026-04-26 17:42 43.16940 -86.99812 30138 ft 453 kts 267°
2026-04-26 17:42 43.16568 -87.08342 30140 ft 451 kts 267°
2026-04-26 17:43 43.16187 -87.16924 30130 ft 451 kts 267°
2026-04-26 17:43 43.15801 -87.25477 30122 ft 451 kts 267°
2026-04-26 17:44 43.15410 -87.34000 30130 ft 451 kts 267°
2026-04-26 17:44 43.15013 -87.42512 30124 ft 449 kts 267°
2026-04-26 17:45 43.14608 -87.51079 30121 ft 450 kts 267°
2026-04-26 17:45 43.14199 -87.59591 30128 ft 450 kts 267°
2026-04-26 17:46 43.13783 -87.68092 30135 ft 449 kts 266°
2026-04-26 17:46 43.13362 -87.76595 30142 ft 449 kts 266°
2026-04-26 17:47 43.13006 -87.83661 30146 ft 448 kts 266°
2026-04-26 17:47 43.12501 -87.93572 30146 ft 448 kts 266°
2026-04-26 17:48 43.12059 -88.02090 30144 ft 448 kts 266°
2026-04-26 17:48 43.11615 -88.10541 30139 ft 447 kts 266°
2026-04-26 17:49 43.11162 -88.19029 30138 ft 448 kts 266°
2026-04-26 17:49 43.10706 -88.27465 30133 ft 447 kts 266°
2026-04-26 17:50 43.10239 -88.35989 30131 ft 448 kts 266°
2026-04-26 17:50 43.09772 -88.44386 30121 ft 447 kts 266°
2026-04-26 17:51 43.09293 -88.52889 30115 ft 447 kts 266°
2026-04-26 17:51 43.08810 -88.61352 30100 ft 447 kts 266°
2026-04-26 17:52 43.08321 -88.69819 30096 ft 448 kts 265°
2026-04-26 17:52 43.07826 -88.78268 30089 ft 448 kts 265°
2026-04-26 17:53 43.07322 -88.86771 30097 ft 449 kts 265°
2026-04-26 17:54 43.06556 -88.99491 30086 ft 447 kts 265°
2026-04-26 17:54 43.06039 -89.07931 30078 ft 448 kts 265°
2026-04-26 17:55 43.05515 -89.16411 30087 ft 447 kts 265°
2026-04-26 17:55 43.04987 -89.24822 30080 ft 447 kts 265°
2026-04-26 17:56 43.04451 -89.33278 30083 ft 446 kts 265°
2026-04-26 17:57 43.03362 -89.50158 30082 ft 448 kts 265°
2026-04-26 17:57 43.02808 -89.58603 30070 ft 447 kts 265°
2026-04-26 17:58 43.01680 -89.75496 30058 ft 446 kts 265°
2026-04-26 17:59 43.00820 -89.88122 30054 ft 448 kts 265°
2026-04-26 17:59 43.00237 -89.96572 30061 ft 447 kts 265°
2026-04-26 18:00 42.99862 -90.05062 30058 ft 447 kts 271°
2026-04-26 18:00 43.00008 -90.13463 30058 ft 446 kts 271°
2026-04-26 18:01 43.00118 -90.21921 30050 ft 445 kts 271°
2026-04-26 18:01 43.00198 -90.30366 30045 ft 443 kts 271°
2026-04-26 18:02 43.00249 -90.37375 30039 ft 444 kts 271°
2026-04-26 18:02 43.00307 -90.47220 30043 ft 444 kts 271°
2026-04-26 18:03 43.00345 -90.55599 30048 ft 444 kts 270°
2026-04-26 18:03 43.00376 -90.63976 30045 ft 443 kts 270°
2026-04-26 18:04 43.00400 -90.72377 30057 ft 442 kts 270°
2026-04-26 18:05 43.00424 -90.84950 30047 ft 442 kts 270°
2026-04-26 18:05 43.00432 -90.93263 30053 ft 441 kts 270°
2026-04-26 18:06 43.00434 -91.01637 30053 ft 439 kts 270°
2026-04-26 18:06 43.00430 -91.09931 30055 ft 440 kts 270°
2026-04-26 18:07 43.00420 -91.18302 30048 ft 439 kts 270°
2026-04-26 18:07 43.00404 -91.26643 30040 ft 439 kts 270°
2026-04-26 18:08 43.00381 -91.34973 30033 ft 439 kts 270°
2026-04-26 18:08 43.00353 -91.43299 30024 ft 438 kts 270°
2026-04-26 18:09 43.00319 -91.51598 30015 ft 438 kts 270°
2026-04-26 18:09 43.00279 -91.59858 30008 ft 438 kts 269°
2026-04-26 18:10 43.00232 -91.68159 30023 ft 439 kts 269°
2026-04-26 18:10 43.00180 -91.76468 30035 ft 438 kts 269°
2026-04-26 18:11 43.00121 -91.84816 30028 ft 439 kts 269°
2026-04-26 18:11 43.00057 -91.93108 30026 ft 438 kts 269°
2026-04-26 18:12 42.99990 -92.01434 30024 ft 438 kts 269°
2026-04-26 18:12 43.00060 -92.09702 30012 ft 439 kts 270°
2026-04-26 18:13 43.00132 -92.18065 30008 ft 437 kts 270°
2026-04-26 18:13 43.00193 -92.26317 29999 ft 437 kts 269°
2026-04-26 18:14 43.00246 -92.34609 29994 ft 437 kts 270°
2026-04-26 18:14 43.00291 -92.42897 29993 ft 438 kts 269°
2026-04-26 18:15 43.00330 -92.51234 29995 ft 437 kts 269°
2026-04-26 18:15 43.00363 -92.59481 29996 ft 436 kts 269°
2026-04-26 18:16 43.00389 -92.67748 29999 ft 437 kts 268°
2026-04-26 18:16 43.00417 -92.80123 29999 ft 437 kts 268°
2026-04-26 18:17 43.00428 -92.88427 29989 ft 438 kts 268°
2026-04-26 18:17 43.00434 -92.96730 29987 ft 438 kts 268°
2026-04-26 18:18 43.00433 -93.05089 29983 ft 438 kts 268°
2026-04-26 18:18 43.00427 -93.13349 29977 ft 439 kts 268°
2026-04-26 18:19 43.00414 -93.21693 29983 ft 439 kts 268°
2026-04-26 18:19 43.00395 -93.30020 29982 ft 439 kts 268°
2026-04-26 18:20 43.00371 -93.38328 29977 ft 438 kts 268°
2026-04-26 18:20 43.00345 -93.45235 29973 ft 439 kts 268°
2026-04-26 18:21 43.00303 -93.54936 29967 ft 439 kts 268°
2026-04-26 18:21 43.00260 -93.63302 29966 ft 439 kts 268°
2026-04-26 18:22 43.00211 -93.71609 29971 ft 441 kts 267°
2026-04-26 18:22 43.00156 -93.80010 29974 ft 441 kts 267°
2026-04-26 18:23 43.00094 -93.88354 29972 ft 443 kts 267°
2026-04-26 18:23 43.00027 -93.96712 29964 ft 442 kts 266°
2026-04-26 18:24 42.99455 -94.04999 29963 ft 437 kts 260°
2026-04-26 18:24 42.98584 -94.13152 29960 ft 437 kts 259°
2026-04-26 18:25 42.97698 -94.21353 29960 ft 439 kts 259°
2026-04-26 18:25 42.96803 -94.29578 29966 ft 437 kts 260°
2026-04-26 18:26 42.95909 -94.37729 29966 ft 438 kts 259°
2026-04-26 18:26 42.95000 -94.45963 29954 ft 439 kts 259°
2026-04-26 18:27 42.94087 -94.54173 29943 ft 439 kts 259°
2026-04-26 18:27 42.93166 -94.62396 29941 ft 439 kts 259°
2026-04-26 18:28 42.92245 -94.70562 29941 ft 437 kts 259°
2026-04-26 18:28 42.91316 -94.78752 29937 ft 437 kts 259°
2026-04-26 18:29 42.90384 -94.86918 29930 ft 438 kts 259°
2026-04-26 18:29 42.89445 -94.95081 29948 ft 437 kts 259°
2026-04-26 18:30 42.88497 -95.03276 29938 ft 438 kts 258°
2026-04-26 18:30 42.87547 -95.11430 29933 ft 438 kts 258°
2026-04-26 18:31 42.86587 -95.19623 29937 ft 439 kts 259°
2026-04-26 18:31 42.85619 -95.27832 29936 ft 437 kts 258°
2026-04-26 18:32 42.84652 -95.35975 29934 ft 439 kts 258°
2026-04-26 18:32 42.83670 -95.44196 29929 ft 441 kts 258°
2026-04-26 18:33 42.82690 -95.52355 29926 ft 437 kts 258°
2026-04-26 18:33 42.81699 -95.60545 29931 ft 438 kts 258°
2026-04-26 18:34 42.80708 -95.68687 29937 ft 439 kts 257°
2026-04-26 18:34 42.79707 -95.76861 29930 ft 437 kts 257°
2026-04-26 18:35 42.78696 -95.85060 29920 ft 440 kts 257°
2026-04-26 18:35 42.77693 -95.93160 29910 ft 439 kts 257°
2026-04-26 18:36 42.76671 -96.01355 29921 ft 437 kts 257°
2026-04-26 18:36 42.75649 -96.09495 29910 ft 440 kts 257°
2026-04-26 18:37 42.74613 -96.17706 29912 ft 440 kts 257°
2026-04-26 18:37 42.73579 -96.25848 29913 ft 442 kts 257°
2026-04-26 18:38 42.72535 -96.34029 29908 ft 439 kts 257°
2026-04-26 18:38 42.71478 -96.42252 29896 ft 443 kts 257°
2026-04-26 18:39 42.70418 -96.50455 29887 ft 442 kts 257°
2026-04-26 18:39 42.69360 -96.58594 29896 ft 444 kts 257°
2026-04-26 18:40 42.68278 -96.66872 29901 ft 442 kts 257°
2026-04-26 18:40 42.67195 -96.75104 29903 ft 444 kts 257°
2026-04-26 18:41 42.66103 -96.83360 29908 ft 445 kts 257°
2026-04-26 18:41 42.65012 -96.91568 29911 ft 444 kts 257°
2026-04-26 18:42 42.63908 -96.99813 29895 ft 443 kts 257°
2026-04-26 18:42 42.62820 -97.07905 29898 ft 444 kts 257°
2026-04-26 18:43 42.61705 -97.16142 29892 ft 445 kts 257°
2026-04-26 18:43 42.60584 -97.24382 29884 ft 443 kts 257°
2026-04-26 18:44 42.59454 -97.32635 29878 ft 446 kts 257°
2026-04-26 18:44 42.58322 -97.40867 29884 ft 446 kts 257°
2026-04-26 18:45 42.57184 -97.49090 29881 ft 446 kts 257°
2026-04-26 18:45 42.56031 -97.57378 29880 ft 445 kts 257°
2026-04-26 18:46 42.54880 -97.65601 29875 ft 447 kts 256°
2026-04-26 18:46 42.53726 -97.73805 29880 ft 445 kts 256°
2026-04-26 18:47 42.52559 -97.82052 29883 ft 447 kts 256°
2026-04-26 18:47 42.51394 -97.90252 29884 ft 443 kts 256°
2026-04-26 18:48 42.50208 -97.98539 29878 ft 448 kts 256°
2026-04-26 18:48 42.49216 -98.06777 29880 ft 446 kts 259°
2026-04-26 18:49 42.48347 -98.15095 29878 ft 448 kts 259°
2026-04-26 18:49 42.47454 -98.23463 29884 ft 448 kts 259°
2026-04-26 18:50 42.46551 -98.31802 29878 ft 448 kts 259°
2026-04-26 18:50 42.45643 -98.40090 29875 ft 450 kts 259°
2026-04-26 18:51 42.44722 -98.48434 29881 ft 448 kts 259°
2026-04-26 18:51 42.43793 -98.56773 29889 ft 448 kts 259°
2026-04-26 18:52 42.42861 -98.65080 29893 ft 449 kts 258°
2026-04-26 18:52 42.41922 -98.73392 29883 ft 451 kts 259°
2026-04-26 18:53 42.40966 -98.81800 29886 ft 450 kts 258°
2026-04-26 18:53 42.40009 -98.90157 29876 ft 449 kts 258°
2026-04-26 18:54 42.39048 -98.98487 29871 ft 451 kts 259°
2026-04-26 18:54 42.38077 -99.06850 29866 ft 452 kts 259°
2026-04-26 18:55 42.37101 -99.15220 29872 ft 450 kts 259°
2026-04-26 18:55 42.36114 -99.23607 29876 ft 453 kts 258°
2026-04-26 18:56 42.35130 -99.31921 29870 ft 452 kts 259°
2026-04-26 18:56 42.34128 -99.40332 29861 ft 454 kts 258°
2026-04-26 18:57 42.33290 -99.47327 29856 ft 453 kts 258°
2026-04-26 18:57 42.32102 -99.57184 29860 ft 455 kts 258°
2026-04-26 18:58 42.31078 -99.65617 29859 ft 455 kts 258°
2026-04-26 18:58 42.30054 -99.74000 29859 ft 455 kts 258°
2026-04-26 18:59 42.29013 -99.82461 29858 ft 456 kts 258°
2026-04-26 18:59 42.27967 -99.90914 29861 ft 455 kts 258°
2026-04-26 19:00 42.26913 -99.99378 29847 ft 457 kts 257°
2026-04-26 19:00 42.25863 -100.07761 29850 ft 457 kts 257°
2026-04-26 19:01 42.24789 -100.16277 29853 ft 458 kts 258°
2026-04-26 19:01 42.23724 -100.24679 29846 ft 458 kts 257°
2026-04-26 19:02 42.22647 -100.33115 29854 ft 459 kts 258°
2026-04-26 19:02 42.21736 -100.40215 29852 ft 458 kts 257°
2026-04-26 19:03 42.20472 -100.50005 29862 ft 457 kts 258°
2026-04-26 19:03 42.19378 -100.58429 29862 ft 459 kts 258°
2026-04-26 19:04 42.18273 -100.66878 29867 ft 457 kts 257°
2026-04-26 19:04 42.17165 -100.75310 29864 ft 457 kts 257°
2026-04-26 19:05 42.15488 -100.87965 29858 ft 458 kts 257°
2026-04-26 19:06 42.14364 -100.96386 29848 ft 458 kts 257°
2026-04-26 19:06 42.13237 -101.04781 29844 ft 458 kts 257°
2026-04-26 19:07 42.12098 -101.13223 29843 ft 458 kts 257°
2026-04-26 19:07 42.10954 -101.21649 29842 ft 457 kts 257°
2026-04-26 19:08 42.09814 -101.29996 29842 ft 456 kts 257°
2026-04-26 19:08 42.08659 -101.38401 29841 ft 457 kts 257°
2026-04-26 19:09 42.07500 -101.46794 29844 ft 456 kts 257°
2026-04-26 19:09 42.06335 -101.55177 29843 ft 457 kts 257°
2026-04-26 19:10 42.05165 -101.63560 29839 ft 456 kts 257°
2026-04-26 19:10 42.03998 -101.71870 29844 ft 455 kts 256°
2026-04-26 19:11 42.02808 -101.80295 29843 ft 455 kts 256°
2026-04-26 19:11 42.01626 -101.88618 29845 ft 454 kts 256°
2026-04-26 19:12 42.00441 -101.96915 29840 ft 453 kts 256°
2026-04-26 19:12 41.98772 -102.05008 29841 ft 452 kts 250°
2026-04-26 19:13 41.96854 -102.13042 29841 ft 452 kts 250°
2026-04-26 19:13 41.94922 -102.21079 29836 ft 453 kts 250°
2026-04-26 19:14 41.92994 -102.29060 29836 ft 452 kts 250°
2026-04-26 19:14 41.91043 -102.37097 29821 ft 452 kts 250°
2026-04-26 19:15 41.89099 -102.45075 29827 ft 452 kts 250°
2026-04-26 19:15 41.87135 -102.53105 29827 ft 453 kts 250°
2026-04-26 19:16 41.85172 -102.61107 29827 ft 452 kts 250°
2026-04-26 19:16 41.83208 -102.69079 29831 ft 453 kts 249°
2026-04-26 19:17 41.81234 -102.77068 29822 ft 452 kts 249°
2026-04-26 19:17 41.79258 -102.85040 29822 ft 452 kts 249°
2026-04-26 19:18 41.77274 -102.93013 29806 ft 454 kts 249°
2026-04-26 19:18 41.75274 -103.01025 29797 ft 453 kts 249°
2026-04-26 19:19 41.73278 -103.08991 29805 ft 453 kts 249°
2026-04-26 19:19 41.71273 -103.16968 29788 ft 452 kts 249°
2026-04-26 19:20 41.69272 -103.24901 29798 ft 452 kts 249°
2026-04-26 19:20 41.67248 -103.32900 29794 ft 452 kts 249°
2026-04-26 19:21 41.65222 -103.40880 29788 ft 452 kts 249°
2026-04-26 19:21 41.63202 -103.48807 29785 ft 453 kts 249°
2026-04-26 19:22 41.61179 -103.56726 29779 ft 450 kts 249°
2026-04-26 19:22 41.59156 -103.64612 29775 ft 452 kts 249°
2026-04-26 19:23 41.57130 -103.72488 29774 ft 449 kts 249°
2026-04-26 19:23 41.55083 -103.80416 29767 ft 450 kts 249°
2026-04-26 19:24 41.53046 -103.88281 29765 ft 451 kts 249°
2026-04-26 19:24 41.49964 -104.00134 29760 ft 450 kts 249°
2026-04-26 19:25 41.48399 -104.06778 29757 ft 451 kts 251°
2026-04-26 19:25 41.46287 -104.16054 29759 ft 450 kts 251°
2026-04-26 19:26 41.44464 -104.23982 29755 ft 450 kts 251°
2026-04-26 19:26 41.42621 -104.31953 29755 ft 450 kts 250°
2026-04-26 19:27 41.40760 -104.39956 29752 ft 449 kts 250°
2026-04-26 19:27 41.38913 -104.47871 29751 ft 450 kts 250°
2026-04-26 19:28 41.37049 -104.55823 29749 ft 450 kts 250°
2026-04-26 19:28 41.35171 -104.63805 29753 ft 451 kts 250°
2026-04-26 19:29 41.33298 -104.71743 29754 ft 450 kts 249°
2026-04-26 19:29 41.31428 -104.79633 29751 ft 450 kts 249°
2026-04-26 19:30 41.29533 -104.87607 29735 ft 450 kts 249°
2026-04-26 19:30 41.27965 -104.94182 29735 ft 449 kts 249°
2026-04-26 19:31 41.25744 -105.03460 29738 ft 450 kts 249°
2026-04-26 19:31 41.23848 -105.11356 29769 ft 452 kts 249°
2026-04-26 19:32 41.21926 -105.19328 29776 ft 453 kts 249°
2026-04-26 19:32 41.19993 -105.27319 29784 ft 456 kts 249°
2026-04-26 19:33 41.18065 -105.35263 29792 ft 456 kts 249°
2026-04-26 19:33 41.16126 -105.43224 29801 ft 457 kts 249°
2026-04-26 19:34 41.14171 -105.51230 29797 ft 457 kts 249°
2026-04-26 19:34 41.12205 -105.59245 29804 ft 458 kts 249°
2026-04-26 19:35 41.10233 -105.67259 29812 ft 460 kts 248°
2026-04-26 19:35 41.08255 -105.75269 29826 ft 461 kts 248°
2026-04-26 19:36 41.06592 -105.81986 29814 ft 460 kts 248°
2026-04-26 19:36 41.04258 -105.91375 29819 ft 464 kts 248°
2026-04-26 19:37 41.02242 -105.99456 29817 ft 466 kts 248°
2026-04-26 19:37 41.00233 -106.07486 29824 ft 466 kts 248°
2026-04-26 19:38 40.98202 -106.15572 29822 ft 465 kts 248°
2026-04-26 19:38 40.96158 -106.23687 29821 ft 467 kts 248°
2026-04-26 19:39 40.94115 -106.31767 29820 ft 466 kts 248°
2026-04-26 19:39 40.92055 -106.39887 29828 ft 466 kts 248°
2026-04-26 19:40 40.89997 -106.47971 29838 ft 468 kts 248°
2026-04-26 19:40 40.87925 -106.56084 29843 ft 468 kts 248°
2026-04-26 19:41 40.85846 -106.64195 29843 ft 467 kts 248°
2026-04-26 19:41 40.84123 -106.70901 29832 ft 467 kts 247°
2026-04-26 19:42 40.81677 -106.80381 29830 ft 467 kts 247°
2026-04-26 19:42 40.79586 -106.88459 29828 ft 467 kts 247°
2026-04-26 19:43 40.77485 -106.96549 29824 ft 466 kts 247°
2026-04-26 19:43 40.75386 -107.04603 29834 ft 466 kts 247°
2026-04-26 19:44 40.73281 -107.12656 29831 ft 468 kts 247°
2026-04-26 19:44 40.71165 -107.20726 29837 ft 464 kts 247°
2026-04-26 19:45 40.69061 -107.28719 29840 ft 464 kts 247°
2026-04-26 19:45 40.66953 -107.36703 29830 ft 465 kts 246°
2026-04-26 19:46 40.64828 -107.44728 29806 ft 462 kts 247°
2026-04-26 19:46 40.62718 -107.52667 29794 ft 464 kts 246°
2026-04-26 19:47 40.60945 -107.59319 29791 ft 464 kts 246°
2026-04-26 19:47 40.58466 -107.68589 29802 ft 462 kts 246°
2026-04-26 19:48 40.56332 -107.76544 29804 ft 462 kts 246°
2026-04-26 19:48 40.54178 -107.84545 29782 ft 463 kts 246°
2026-04-26 19:49 40.52049 -107.92431 29785 ft 461 kts 246°
2026-04-26 19:49 40.49900 -108.00364 29786 ft 462 kts 246°
2026-04-26 19:50 40.47770 -108.08266 29787 ft 460 kts 246°
2026-04-26 19:50 40.45616 -108.16237 29779 ft 461 kts 247°
2026-04-26 19:51 40.43481 -108.24120 29773 ft 461 kts 246°
2026-04-26 19:51 40.41334 -108.32015 29769 ft 460 kts 247°
2026-04-26 19:52 40.39175 -108.39928 29768 ft 459 kts 247°
2026-04-26 19:52 40.37022 -108.47795 29769 ft 461 kts 247°
2026-04-26 19:53 40.34870 -108.55637 29759 ft 458 kts 247°
2026-04-26 19:53 40.32717 -108.63454 29761 ft 458 kts 248°
2026-04-26 19:54 40.30561 -108.71258 29759 ft 461 kts 247°
2026-04-26 19:54 40.28393 -108.79087 29759 ft 459 kts 247°
2026-04-26 19:55 40.26214 -108.86927 29759 ft 462 kts 248°
2026-04-26 19:55 40.24038 -108.94735 29752 ft 461 kts 248°
2026-04-26 19:56 40.21857 -109.02534 29752 ft 460 kts 248°
2026-04-26 19:56 40.19649 -109.10404 29762 ft 459 kts 248°
2026-04-26 19:57 40.17449 -109.18224 29745 ft 460 kts 248°
2026-04-26 19:57 40.15253 -109.26009 29749 ft 459 kts 248°
2026-04-26 19:58 40.13039 -109.33831 29754 ft 462 kts 249°
2026-04-26 19:58 40.11293 -109.41929 29759 ft 463 kts 255°
2026-04-26 19:59 40.09747 -109.50025 29774 ft 462 kts 255°
2026-04-26 19:59 40.08176 -109.58185 29745 ft 462 kts 255°
2026-04-26 20:00 40.06604 -109.66303 29748 ft 462 kts 255°
2026-04-26 20:00 40.05030 -109.74387 29744 ft 465 kts 255°
2026-04-26 20:01 40.03440 -109.82522 29755 ft 465 kts 255°
2026-04-26 20:01 40.01846 -109.90636 29752 ft 466 kts 255°
2026-04-26 20:02 40.00217 -109.98831 29734 ft 465 kts 253°
2026-04-26 20:02 39.98312 -110.05399 29742 ft 466 kts 248°
2026-04-26 20:03 39.95443 -110.14527 29745 ft 468 kts 247°
2026-04-26 20:03 39.92976 -110.22352 29752 ft 466 kts 248°
2026-04-26 20:04 39.90492 -110.30209 29742 ft 470 kts 247°
2026-04-26 20:04 39.88014 -110.38027 29754 ft 470 kts 247°
2026-04-26 20:05 39.85519 -110.45875 29758 ft 471 kts 247°
2026-04-26 20:05 39.83023 -110.53708 29734 ft 475 kts 247°
2026-04-26 20:06 39.80479 -110.61668 29760 ft 471 kts 247°
2026-04-26 20:06 39.77956 -110.69536 29746 ft 475 kts 247°
2026-04-26 20:07 39.75383 -110.77538 29744 ft 481 kts 248°
2026-04-26 20:07 39.72803 -110.85542 29766 ft 482 kts 248°
2026-04-26 20:08 39.70232 -110.93495 29772 ft 474 kts 247°
2026-04-26 20:08 39.67694 -111.01324 29773 ft 475 kts 247°
2026-04-26 20:09 39.65131 -111.09206 29760 ft 476 kts 246°
2026-04-26 20:09 39.62744 -111.17292 29775 ft 477 kts 253°
2026-04-26 20:10 39.60817 -111.25425 29752 ft 477 kts 254°
2026-04-26 20:10 39.58872 -111.33620 29761 ft 475 kts 253°
2026-04-26 20:11 39.56925 -111.41772 29767 ft 474 kts 253°
2026-04-26 20:12 39.53995 -111.53966 29787 ft 470 kts 253°
2026-04-26 20:12 39.52045 -111.62042 29770 ft 472 kts 253°
2026-04-26 20:13 39.50086 -111.70126 29773 ft 472 kts 252°
2026-04-26 20:13 39.48127 -111.78185 29745 ft 471 kts 253°
2026-04-26 20:14 39.46152 -111.86276 29756 ft 470 kts 253°
2026-04-26 20:14 39.44181 -111.94325 29749 ft 470 kts 253°
2026-04-26 20:15 39.42210 -112.02347 29763 ft 471 kts 253°
2026-04-26 20:15 39.40220 -112.10419 29765 ft 470 kts 253°
2026-04-26 20:16 39.38234 -112.18449 29759 ft 469 kts 253°
2026-04-26 20:16 39.36248 -112.26450 29756 ft 469 kts 253°
2026-04-26 20:17 39.34251 -112.34467 29770 ft 469 kts 253°
2026-04-26 20:17 39.32248 -112.42485 29771 ft 468 kts 253°
2026-04-26 20:18 39.30247 -112.50468 29768 ft 468 kts 253°
2026-04-26 20:18 39.28656 -112.58563 29771 ft 467 kts 258°
2026-04-26 20:19 39.27231 -112.66686 29780 ft 466 kts 257°
2026-04-26 20:19 39.25771 -112.74831 29772 ft 465 kts 257°
2026-04-26 20:20 39.24294 -112.82957 29787 ft 466 kts 257°
2026-04-26 20:20 39.22802 -112.91086 29783 ft 465 kts 257°
2026-04-26 20:21 39.21316 -112.99136 29783 ft 465 kts 257°
2026-04-26 20:21 39.19814 -113.07226 29782 ft 464 kts 257°
2026-04-26 20:22 39.18313 -113.15268 29779 ft 464 kts 257°
2026-04-26 20:22 39.16794 -113.23373 29780 ft 465 kts 257°
2026-04-26 20:23 39.15270 -113.31467 29775 ft 463 kts 257°
2026-04-26 20:23 39.13753 -113.39491 29776 ft 464 kts 257°
2026-04-26 20:24 39.12226 -113.47533 29767 ft 462 kts 257°
2026-04-26 20:24 39.10699 -113.55546 29752 ft 462 kts 257°
2026-04-26 20:25 39.09168 -113.63547 29761 ft 462 kts 257°
2026-04-26 20:25 39.07637 -113.71514 29772 ft 461 kts 257°
2026-04-26 20:26 39.06090 -113.79533 29785 ft 462 kts 257°
2026-04-26 20:26 39.04551 -113.87482 29787 ft 461 kts 257°
2026-04-26 20:27 39.03001 -113.95453 29780 ft 461 kts 257°
2026-04-26 20:27 39.01440 -114.03449 29779 ft 461 kts 256°
2026-04-26 20:28 38.99881 -114.11406 29767 ft 460 kts 257°
2026-04-26 20:28 38.98320 -114.19336 29764 ft 459 kts 256°
2026-04-26 20:29 38.96752 -114.27279 29755 ft 458 kts 256°
2026-04-26 20:29 38.95189 -114.35160 29762 ft 458 kts 256°
2026-04-26 20:30 38.93609 -114.43098 29773 ft 457 kts 256°
2026-04-26 20:30 38.92033 -114.50987 29789 ft 456 kts 256°
2026-04-26 20:31 38.90461 -114.58826 29776 ft 455 kts 256°
2026-04-26 20:31 38.88884 -114.66662 29786 ft 455 kts 255°
2026-04-26 20:32 38.87294 -114.74532 29796 ft 455 kts 255°
2026-04-26 20:32 38.85698 -114.82401 29806 ft 455 kts 255°
2026-04-26 20:33 38.84117 -114.90163 29805 ft 455 kts 255°
2026-04-26 20:33 38.82503 -114.98061 29810 ft 456 kts 255°
2026-04-26 20:34 38.80906 -115.05853 29829 ft 454 kts 255°
2026-04-26 20:34 38.79300 -115.13651 29821 ft 452 kts 255°
2026-04-26 20:35 38.77697 -115.21409 29825 ft 452 kts 255°
2026-04-26 20:35 38.76083 -115.29190 29820 ft 452 kts 255°
2026-04-26 20:36 38.74458 -115.37000 29832 ft 451 kts 255°
2026-04-26 20:36 38.72850 -115.44701 29838 ft 451 kts 255°
2026-04-26 20:37 38.71217 -115.52488 29842 ft 453 kts 255°
2026-04-26 20:37 38.69591 -115.60214 29831 ft 451 kts 255°
2026-04-26 20:38 38.67959 -115.67946 29838 ft 450 kts 255°
2026-04-26 20:38 38.66325 -115.75654 29835 ft 450 kts 255°
2026-04-26 20:39 38.64679 -115.83396 29838 ft 449 kts 255°
2026-04-26 20:39 38.63041 -115.91069 29831 ft 449 kts 255°
2026-04-26 20:40 38.61394 -115.98759 29837 ft 450 kts 255°
2026-04-26 20:40 38.59736 -116.06477 29833 ft 450 kts 255°
2026-04-26 20:41 38.58083 -116.14139 29832 ft 449 kts 255°
2026-04-26 20:41 38.56434 -116.21757 29833 ft 448 kts 255°
2026-04-26 20:42 38.54762 -116.29454 29835 ft 449 kts 255°
2026-04-26 20:42 38.53086 -116.37144 29826 ft 448 kts 255°
2026-04-26 20:43 38.51427 -116.44730 29823 ft 446 kts 255°
2026-04-26 20:43 38.49738 -116.52430 29825 ft 447 kts 255°
2026-04-26 20:44 38.48067 -116.60017 29825 ft 448 kts 255°
2026-04-26 20:44 38.46384 -116.67638 29830 ft 447 kts 254°
2026-04-26 20:45 38.44691 -116.75271 29831 ft 448 kts 254°
2026-04-26 20:45 38.43005 -116.82853 29836 ft 446 kts 254°
2026-04-26 20:46 38.41309 -116.90453 29838 ft 444 kts 254°
2026-04-26 20:46 38.39613 -116.98027 29839 ft 445 kts 254°
2026-04-26 20:47 38.37916 -117.05579 29837 ft 445 kts 254°
2026-04-26 20:47 38.36217 -117.13114 29837 ft 445 kts 254°
2026-04-26 20:48 38.34503 -117.20695 29838 ft 444 kts 254°
2026-04-26 20:48 38.32784 -117.28268 29840 ft 445 kts 254°
2026-04-26 20:49 38.31620 -117.35960 29843 ft 445 kts 261°
2026-04-26 20:49 38.30656 -117.43733 29841 ft 444 kts 261°
2026-04-26 20:50 38.29658 -117.51437 29845 ft 443 kts 261°
2026-04-26 20:50 38.28632 -117.59158 29842 ft 444 kts 260°
2026-04-26 20:51 38.27590 -117.66888 29845 ft 441 kts 259°
2026-04-26 20:51 38.26546 -117.74548 29841 ft 441 kts 259°
2026-04-26 20:52 38.25496 -117.82208 29841 ft 443 kts 259°
2026-04-26 20:52 38.24427 -117.89944 29841 ft 442 kts 259°
2026-04-26 20:53 38.23364 -117.97604 29850 ft 441 kts 259°
2026-04-26 20:53 38.22296 -118.05257 29840 ft 441 kts 259°
2026-04-26 20:54 38.21223 -118.12904 29840 ft 441 kts 259°
2026-04-26 20:54 38.20149 -118.20525 29844 ft 439 kts 259°
2026-04-26 20:55 38.19071 -118.28136 29848 ft 439 kts 259°
2026-04-26 20:55 38.17981 -118.35791 29852 ft 438 kts 259°
2026-04-26 20:56 38.16898 -118.43363 29853 ft 438 kts 259°
2026-04-26 20:56 38.15798 -118.51013 29852 ft 437 kts 259°
2026-04-26 20:57 38.14704 -118.58593 29888 ft 436 kts 259°
2026-04-26 20:57 38.13601 -118.66191 29872 ft 436 kts 259°
2026-04-26 20:58 38.12494 -118.73782 29882 ft 437 kts 259°
2026-04-26 20:58 38.11402 -118.81358 29888 ft 435 kts 259°
2026-04-26 20:59 38.10317 -118.88902 29881 ft 435 kts 259°
2026-04-26 20:59 38.09238 -118.96371 29887 ft 432 kts 259°
2026-04-26 21:00 38.08167 -119.03735 29886 ft 433 kts 259°
2026-04-26 21:00 38.07073 -119.11231 29881 ft 434 kts 259°
2026-04-26 21:01 38.05971 -119.18741 29873 ft 435 kts 259°
2026-04-26 21:01 38.04865 -119.26250 29871 ft 435 kts 259°
2026-04-26 21:02 38.03753 -119.33756 29860 ft 435 kts 259°
2026-04-26 21:02 38.02634 -119.41277 29855 ft 434 kts 259°
2026-04-26 21:03 38.01509 -119.48808 29880 ft 433 kts 259°
2026-04-26 21:03 38.00389 -119.56271 29895 ft 433 kts 259°
2026-04-26 21:04 37.99258 -119.63771 29909 ft 433 kts 259°
2026-04-26 21:04 37.98127 -119.71235 29926 ft 432 kts 259°
2026-04-26 21:05 37.96988 -119.78648 29938 ft 433 kts 259°
2026-04-26 21:05 37.95832 -119.86117 29896 ft 427 kts 259°
2026-04-26 21:05 37.95268 -119.89747 29493 ft 417 kts 259°
2026-04-26 21:06 37.94716 -119.93295 28970 ft 410 kts 259°
2026-04-26 21:06 37.94168 -119.96814 28471 ft 421 kts 259°
2026-04-26 21:06 37.93602 -120.00440 27970 ft 424 kts 259°
2026-04-26 21:06 37.93035 -120.04068 27459 ft 419 kts 259°
2026-04-26 21:07 37.92462 -120.07716 26946 ft 416 kts 259°
2026-04-26 21:07 37.91904 -120.11275 26431 ft 413 kts 259°
2026-04-26 21:07 37.91353 -120.14772 25931 ft 409 kts 259°
2026-04-26 21:07 37.90799 -120.18284 25406 ft 406 kts 259°
2026-04-26 21:08 37.90247 -120.21776 24869 ft 404 kts 259°
2026-04-26 21:08 37.89700 -120.25230 24348 ft 400 kts 259°
2026-04-26 21:08 37.89161 -120.28626 24173 ft 384 kts 259°
2026-04-26 21:08 37.88647 -120.31858 24098 ft 367 kts 259°
2026-04-26 21:09 37.88155 -120.34942 23972 ft 352 kts 259°
2026-04-26 21:09 37.87664 -120.37938 23769 ft 353 kts 259°
2026-04-26 21:09 37.87147 -120.41010 23504 ft 360 kts 259°
2026-04-26 21:09 37.86621 -120.44137 23246 ft 359 kts 259°
2026-04-26 21:10 37.86109 -120.47176 22999 ft 357 kts 259°
2026-04-26 21:10 37.85593 -120.50235 22762 ft 357 kts 259°
2026-04-26 21:10 37.85075 -120.53306 22520 ft 356 kts 259°
2026-04-26 21:10 37.84555 -120.56381 22269 ft 356 kts 259°
2026-04-26 21:11 37.84041 -120.59419 22028 ft 354 kts 259°
2026-04-26 21:11 37.83527 -120.62455 21785 ft 353 kts 259°
2026-04-26 21:11 37.83012 -120.65492 21552 ft 352 kts 258°
2026-04-26 21:11 37.82502 -120.68487 21328 ft 351 kts 259°
2026-04-26 21:12 37.81989 -120.71499 21088 ft 349 kts 258°
2026-04-26 21:12 37.81483 -120.74466 20846 ft 341 kts 259°
2026-04-26 21:12 37.80988 -120.77363 20608 ft 331 kts 259°
2026-04-26 21:12 37.80511 -120.80148 20388 ft 321 kts 259°
2026-04-26 21:13 37.80041 -120.82893 20186 ft 319 kts 259°
2026-04-26 21:13 37.79571 -120.85637 19970 ft 319 kts 259°
2026-04-26 21:13 37.79099 -120.88370 19646 ft 321 kts 259°
2026-04-26 21:13 37.78621 -120.91116 19210 ft 320 kts 259°
2026-04-26 21:14 37.78149 -120.93828 18768 ft 317 kts 259°
2026-04-26 21:14 37.77681 -120.96513 18388 ft 314 kts 259°
2026-04-26 21:14 37.77208 -120.99223 17988 ft 312 kts 259°
2026-04-26 21:14 37.76744 -121.01880 17590 ft 312 kts 259°
2026-04-26 21:15 37.76280 -121.04533 17195 ft 310 kts 259°
2026-04-26 21:15 37.75815 -121.07189 16810 ft 309 kts 259°
2026-04-26 21:15 37.75357 -121.09827 16441 ft 305 kts 259°
2026-04-26 21:15 37.74908 -121.12410 16079 ft 301 kts 259°
2026-04-26 21:16 37.74465 -121.14955 15705 ft 297 kts 259°
2026-04-26 21:16 37.74024 -121.17487 15394 ft 292 kts 259°
2026-04-26 21:16 37.73591 -121.19965 15072 ft 289 kts 259°
2026-04-26 21:16 37.73163 -121.22413 14722 ft 285 kts 259°
2026-04-26 21:17 37.72734 -121.24862 14363 ft 283 kts 259°
2026-04-26 21:17 37.72313 -121.27270 13811 ft 288 kts 258°
2026-04-26 21:17 37.71876 -121.29756 13327 ft 290 kts 258°
2026-04-26 21:17 37.71440 -121.32208 12921 ft 289 kts 257°
2026-04-26 21:18 37.70851 -121.34629 12532 ft 287 kts 252°
2026-04-26 21:18 37.70213 -121.36973 12305 ft 280 kts 252°
2026-04-26 21:18 37.69585 -121.39271 12119 ft 272 kts 252°
2026-04-26 21:18 37.68973 -121.41518 11765 ft 271 kts 252°
2026-04-26 21:19 37.68362 -121.43769 11374 ft 271 kts 252°
2026-04-26 21:19 37.67749 -121.46025 11007 ft 270 kts 252°
2026-04-26 21:19 37.67149 -121.48231 10661 ft 270 kts 252°
2026-04-26 21:19 37.66541 -121.50466 10304 ft 269 kts 252°
2026-04-26 21:20 37.65933 -121.52698 9973 ft 267 kts 252°
2026-04-26 21:20 37.65335 -121.54894 9614 ft 267 kts 252°
2026-04-26 21:20 37.64725 -121.57128 9268 ft 266 kts 252°
2026-04-26 21:20 37.64101 -121.59415 9188 ft 287 kts 252°
2026-04-26 21:21 37.63434 -121.61857 9192 ft 307 kts 252°
2026-04-26 21:21 37.62742 -121.64387 9191 ft 308 kts 252°
2026-04-26 21:21 37.62028 -121.66994 9199 ft 316 kts 251°
2026-04-26 21:21 37.61520 -121.69569 8973 ft 295 kts 263°
2026-04-26 21:22 37.61319 -121.72068 8502 ft 284 kts 265°
2026-04-26 21:22 37.61165 -121.74532 7852 ft 281 kts 265°
2026-04-26 21:22 37.61008 -121.76964 7184 ft 279 kts 265°
2026-04-26 21:23 37.60703 -121.81791 5847 ft 276 kts 268°
2026-04-26 21:23 37.60691 -121.84184 5304 ft 269 kts 270°
2026-04-26 21:23 37.60710 -121.86441 5308 ft 251 kts 270°
2026-04-26 21:23 37.60728 -121.88615 5183 ft 239 kts 271°
2026-04-26 21:24 37.60881 -121.90587 4981 ft 219 kts 278°
2026-04-26 21:24 37.61100 -121.92404 4797 ft 200 kts 278°
2026-04-26 21:24 37.61302 -121.94064 4582 ft 185 kts 278°
2026-04-26 21:24 37.61492 -121.95630 4386 ft 178 kts 278°
2026-04-26 21:25 37.61614 -121.97124 4185 ft 169 kts 262°
2026-04-26 21:25 37.61087 -121.98408 3995 ft 165 kts 229°
2026-04-26 21:25 37.60482 -121.99589 3829 ft 162 kts 260°
2026-04-26 21:25 37.60547 -122.00987 3667 ft 161 kts 274°
2026-04-26 21:26 37.60645 -122.02402 3489 ft 160 kts 276°
2026-04-26 21:26 37.60780 -122.03759 3308 ft 154 kts 277°
2026-04-26 21:26 37.60926 -122.05075 3131 ft 150 kts 277°
2026-04-26 21:26 37.61072 -122.06373 2953 ft 150 kts 277°
2026-04-26 21:27 37.61229 -122.07673 2758 ft 149 kts 278°
2026-04-26 21:27 37.61633 -122.08862 2573 ft 150 kts 304°
2026-04-26 21:27 37.62323 -122.09846 2379 ft 150 kts 309°
2026-04-26 21:27 37.63017 -122.10840 2183 ft 149 kts 308°
2026-04-26 21:28 37.63689 -122.11832 1989 ft 149 kts 307°
2026-04-26 21:28 37.64355 -122.12822 1793 ft 148 kts 307°
2026-04-26 21:28 37.65021 -122.13812 1598 ft 148 kts 307°
2026-04-26 21:28 37.65688 -122.14803 1399 ft 147 kts 307°
2026-04-26 21:29 37.66343 -122.15778 1202 ft 146 kts 307°
2026-04-26 21:29 37.67007 -122.16766 1003 ft 146 kts 307°
2026-04-26 21:29 37.67662 -122.17737 820 ft 145 kts 307°
2026-04-26 21:29 37.68325 -122.18700 677 ft 146 kts 307°
2026-04-26 21:30 37.68979 -122.19662 443 ft 144 kts 307°
2026-04-26 21:30 37.69619 -122.20622 241 ft 143 kts 306°
2026-04-26 21:30 37.70254 -122.21585 57 ft 141 kts 306°
2026-04-26 21:30 37.70874 -122.22508 21 ft 133 kts 307°
2026-04-26 21:31 37.71444 -122.23382 19 ft 117 kts 312°
2026-04-26 21:31 37.71744 -122.23821 19 ft 39 kts 309°
2026-04-26 21:31 37.71877 -122.24020 19 ft 19 kts 316°
2026-04-26 21:31 37.71948 -122.24029 19 ft 12 kts 25°
2026-04-26 21:32 37.71994 -122.23937 19 ft 15 kts 106°
2026-04-26 21:32 37.71925 -122.23817 19 ft 18 kts 127°
2026-04-26 21:32 37.71851 -122.23672 19 ft 20 kts 121°
2026-04-26 21:32 37.71777 -122.23515 19 ft 19 kts 121°
2026-04-26 21:33 37.71698 -122.23370 19 ft 20 kts 129°
2026-04-26 21:33 37.71606 -122.23230 19 ft 20 kts 130°
2026-04-26 21:33 37.71510 -122.23089 19 ft 21 kts 131°
2026-04-26 21:33 37.71414 -122.22948 19 ft 21 kts 130°
2026-04-26 21:34 37.71315 -122.22800 19 ft 22 kts 130°
2026-04-26 21:34 37.71232 -122.22674 19 ft 15 kts 129°
2026-04-26 21:34 37.71199 -122.22549 19 ft 15 kts 69°
2026-04-26 21:34 37.71273 -122.22443 19 ft 11 kts 47°
2026-04-26 21:35 37.71328 -122.22366 19 ft 12 kts 50°
2026-04-26 21:35 37.71350 -122.22308 19 ft 0 kts 81°
2026-04-26 21:36 37.71349 -122.22296 19 ft 4 kts 102°
2026-04-26 21:36 37.71337 -122.22217 19 ft 11 kts 84°
2026-04-26 21:36 37.71379 -122.22124 19 ft 13 kts 49°
2026-04-26 21:36 37.71443 -122.22034 19 ft 14 kts 48°
2026-04-26 21:37 37.71513 -122.21934 19 ft 15 kts 49°
2026-04-26 21:37 37.71567 -122.21854 19 ft 11 kts 49°
2026-04-26 21:37 37.71623 -122.21775 19 ft 12 kts 48°
2026-04-26 21:37 37.71670 -122.21709 19 ft 9 kts 48°
2026-04-26 21:38 37.71728 -122.21682 19 ft 8 kts 339°
2026-04-26 21:38 37.71766 -122.21725 19 ft 7 kts 310°
2026-04-26 21:38 37.71791 -122.21790 19 ft 8 kts 272°
2026-04-26 21:38 37.71757 -122.21860 19 ft 9 kts 227°
2026-04-26 21:39 37.71726 -122.21902 19 ft 2 kts 227°
2026-04-26 21:39 37.71716 -122.21905 19 ft 1 kts 168°
2026-04-26 21:39 37.71699 -122.21895 19 ft 4 kts 153°
2026-04-26 21:39 37.71677 -122.21873 19 ft 3 kts 139°
2026-04-26 21:40 37.71670 -122.21865 19 ft 1 kts 140°
2026-04-26 21:40 37.71668 -122.21864 19 ft 0 kts 140°